Regional Weather Roundup
Issued by NWS Cleveland, OH

Home | Current Version | Previous Version | Graphics & Text | Print | Product List | Glossary On
Versions: 1 2 3 4 5 6 7 8 9 10 11 12 13 14 15 16 17 18 19 20 21 22 23 24 25 26 27 28 29 30 31 32 33 34 35 36 37 38 39 40 41 42 43 44 45 46 47 48 49 50
000
ASUS41 KCLE 280410
RWRCLE
OHIO REGIONAL WEATHER ROUNDUP
NATIONAL WEATHER SERVICE WILMINGTON, OH
1200 AM EDT MON MAY 28 2018

NOTE: "FAIR" INDICATES FEW OR NO CLOUDS BELOW 12,000 FEET WITH NO
SIGNIFICANT WEATHER AND/OR OBSTRUCTIONS TO VISIBILITY.

OHZ001>008-015>018-024>027-034-035-043-044-280500-
   NORTHWEST OHIO

CITY           SKY/WX    TMP DP  RH WIND       PRES   REMARKS
DEFIANCE       FAIR      73  64  73 CALM      29.93R
FINDLAY        FAIR      74  63  68 S8        29.93R
TOLEDO EXPRESS FAIR      70  66  87 CALM      29.92R
TOLEDO EXEC    FAIR      74  68  81 SE3       29.93R
LIMA           FAIR      73  61  65 SE6       29.94S
$$

OHZ009>014-019>023-028>033-038-089-280500-
   NORTHEAST OHIO

CITY           SKY/WX    TMP DP  RH WIND       PRES   REMARKS
CLE-HOPKINS    FAIR      74  67  78 S6        29.96R
CLE-LAKEFRONT  FAIR      77  64  64 S5        29.93R
CUY CO. ARPT   NOT AVBL
LORAIN-ELYRIA  FAIR      73  64  73 S6        29.95R
ASHTABULA      FAIR      67  65  93 CALM      29.96S
AKRON-CANTON   FAIR      73  65  75 SW3       29.98R
WOOSTER        FAIR      70  67  90 CALM      29.98R
MANSFIELD      FAIR      73  68  84 S7        29.98S
YOUNGSTOWN     FAIR      72  65  78 S5        29.97S
$$

OHZ042-051>053-060>062-070>072-077>081-280500-
  SOUTHWEST OHIO

CITY           SKY/WX    TMP DP  RH WIND       PRES   REMARKS
CINC-COVINGTON MOCLDY    74  67  78 CALM      29.96S
CINC-LUNKEN    FAIR      71  70  96 CALM      29.96S
HAMILTON       FAIR      73  70  90 CALM      29.95F
DAYTON         MOCLDY    77  70  79 S8        29.97R
WRIGHT-PAT AFB FAIR      75  68  77 S6        29.96R
DAYTON GENERAL FAIR      75  67  76 S8        29.96R
WILMINGTON     FAIR      71  67  87 S3        29.97S
$$

OHZ036-037-039>041-045>050-054>059-063>069-073>076-082>088-280500-
  CENTRAL AND SOUTHEAST OHIO

CITY           SKY/WX    TMP DP  RH WIND       PRES   REMARKS
COLUMBUS       FAIR      78  68  71 SE3       29.96R
OSU AIRPORT    FAIR      77  67  71 S6        29.96R
BOLTON FIELD   FAIR      73  68  86 S5        29.97S
RICKENBACK AFB FAIR      73  69  86 MISG      29.96R
NEWARK         FAIR      73  70  90 CALM      29.97R
MARION         FAIR      75  67  76 S7        29.97R
LANCASTER      FAIR      72  69  90 CALM      29.97R
ZANESVILLE     FAIR      71  68  90 CALM      29.97S
NEW PHILLY     FAIR      69  68  96 CALM      29.98R
$$



USA.gov is the U.S. government's official web portal to all federal, state and local government web resources and services.